Flag for Moldova Weather past 2 weeks in Chisinau, Moldova

Now
59 °F

Partly sunny.


Feels Like: 56 °F
Forecast: 44 / 67 °F
Wind: 16 mph from Northwest

Location: Chisinau International Airport

Current Time: May 3, 2015 at 1:54:56 PM

Latest Report: May 3, 2015 at 1:30 PM


Visibility: N/A

Pressure: 29.86 "Hg

Humidity: 59%

Dew point: 45 °F

Location of ChisinauLocation

Historic Weather in Chisinau — Graph

°F

Chisinau temperature yesterday

Maximum temperature yesterday: 72 °F (at 12:30 PM)
Minimum temperature yesterday: 48 °F (at 6:00 AM)
Average temperature yesterday: 59 °F

Past Weeks' High & Low Weather Summary

 TemperatureHumidityPressure
High73 °F (Apr 24, 3:00 PM)94% (May 2, 7:00 AM)30.18 "Hg (May 2, 7:00 AM)
Low32 °F (Apr 23, 3:00 AM)19% (Apr 25, 1:00 PM)29.65 "Hg (Apr 20, 1:30 PM)
Average53 °F62%29.92 "Hg
* Reported Apr 18 1:00 PM — May 3 1:00 PM, Chisinau, Weather by CustomWeather, © 2015

Note: Actual official high and low records may vary slightly from our data, if they occured in-between our weather recording intervals... More about our weather records

Advertising

Chisinau weather history for previous 24 hours

 ConditionsComfort  
Time TempWeatherWind HumidityBarometerVisibility
1:00 PM
Sun, May 3
57 °FPartly sunny.15 mph63%29.86 "HgN/A
12:30 PM57 °FPartly sunny.16 mph67%29.86 "HgN/A
12:00 PM57 °FPartly sunny.16 mph67%29.86 "HgN/A
11:30 AM55 °FBroken clouds.16 mph72%29.83 "HgN/A
11:00 AM54 °FMostly cloudy.13 mph82%29.83 "HgN/A
10:30 AM54 °FMostly cloudy.13 mph82%29.83 "HgN/A
10:00 AM54 °FMostly cloudy.14 mph82%29.83 "HgN/A
9:30 AM54 °FMostly cloudy.13 mph82%29.80 "HgN/A
9:00 AM54 °FLight rain. Mostly cloudy.15 mph82%29.80 "Hg3 mi
8:30 AM54 °FLight rain. Mostly cloudy.14 mph88%29.80 "HgN/A
8:00 AM55 °FPartly sunny.15 mph82%29.77 "HgN/A
7:30 AM55 °FBroken clouds.9 mph88%29.77 "HgN/A
7:00 AM55 °FBroken clouds.10 mph88%29.77 "HgN/A
6:30 AM55 °FPartly cloudy.9 mph88%29.74 "HgN/A
6:00 AM55 °FSprinkles. Partly cloudy.8 mph88%29.74 "HgN/A
5:30 AM55 °FSprinkles. Partly cloudy.9 mph88%29.74 "HgN/A
5:00 AM55 °FSprinkles. Partly cloudy.12 mph88%29.74 "Hg6 mi
4:30 AM55 °FSprinkles. Mostly cloudy.9 mph94%29.74 "Hg5 mi
4:00 AM55 °FSprinkles. Mostly cloudy.8 mph94%29.74 "Hg5 mi
3:30 AM55 °FSprinkles. Mostly cloudy.5 mph94%29.74 "Hg4 mi
3:00 AM55 °FSprinkles. Fog.3 mph94%29.74 "Hg1 mi
2:30 AM55 °FSprinkles. Fog.No wind88%29.74 "Hg1 mi
2:00 AM55 °FSprinkles. Fog.No wind88%29.74 "Hg2 mi
1:30 AM55 °FRain showers. Fog.2 mph94%29.74 "Hg1 mi
1:00 AM55 °FSprinkles. Fog.3 mph94%29.74 "Hg3 mi
12:00 AM57 °FSprinkles. Mostly cloudy.3 mph88%29.74 "Hg4 mi
11:30 PM
Sat, May 2
57 °FSprinkles. Mostly cloudy.2 mph88%29.77 "Hg4 mi
11:00 PM57 °FSprinkles. Mostly cloudy.2 mph88%29.77 "HgN/A
10:30 PM57 °FSprinkles. Mostly cloudy.3 mph88%29.77 "Hg5 mi
10:00 PM57 °FSprinkles. Mostly cloudy.2 mph88%29.77 "HgN/A
9:30 PM57 °FSprinkles. Mostly cloudy.3 mph88%29.77 "HgN/A
9:00 PM57 °FSprinkles. Mostly cloudy.5 mph88%29.77 "HgN/A
8:30 PM59 °FSprinkles. Mostly cloudy.2 mph82%29.77 "Hg6 mi
8:00 PM59 °FSprinkles. Mostly cloudy.3 mph82%29.77 "HgN/A
7:30 PM61 °FRain showers. Partly sunny.7 mph77%29.74 "Hg2 mi
7:00 PM63 °FSprinkles. Broken clouds.7 mph73%29.74 "HgN/A
6:30 PM63 °FSprinkles. Broken clouds.7 mph73%29.74 "HgN/A
6:00 PM64 °FSprinkles. Broken clouds.6 mph68%29.74 "HgN/A
5:30 PM64 °FPartly sunny.13 mph64%29.74 "HgN/A
5:00 PM64 °FPartly sunny.7 mph68%29.74 "HgN/A
4:30 PM63 °FSprinkles. Broken clouds.9 mph68%29.74 "HgN/A
4:00 PM64 °FSprinkles. Broken clouds.17 mph60%29.74 "HgN/A
3:30 PM70 °FSprinkles. Broken clouds.17 mph53%29.74 "HgN/A
3:00 PM68 °FBroken clouds.16 mph53%29.74 "HgN/A
2:30 PM66 °FBroken clouds.16 mph64%29.77 "HgN/A
2:00 PM70 °FSprinkles. Partly sunny.13 mph46%29.77 "HgN/A
1:30 PM70 °FScattered clouds.13 mph43%29.77 "HgN/A
1:00 PM72 °FPassing clouds.10 mph36%29.77 "HgN/A
Weather by CustomWeather, © 2015

See weather overviewHow to use our weather pages